Regional Weather Roundup
Issued by NWS

Home | Current Version | Previous Version | Graphics & Text | Print | Product List | Glossary Off
Versions: 1 2 3 4 5 6 7 8 9 10 11 12 13 14 15 16 17 18 19 20 21 22 23 24 25 26 27 28 29 30 31 32 33 34 35 36 37 38 39 40 41 42 43 44 45 46 47 48 49 50

000
ASUS43 KMKX 251600
RWRWI

WISCONSIN REGIONAL WEATHER ROUNDUP
NATIONAL WEATHER SERVICE MILWAUKEE/SULLIVAN WI
1100 AM CDT TUE JUL 25 2017

NOTE: "FAIR" INDICATES FEW OR NO CLOUDS BELOW 12,000 FEET WITH NO
SIGNIFICANT WEATHER AND/OR OBSTRUCTIONS TO VISIBILITY.

WIZ001-002-006>008-014>016-023>028-251700-
NORTHWEST WISCONSIN

CITY           SKY/WX    TMP DP  RH WIND       PRES   REMARKS
SUPERIOR ARPT  NOT AVBL
ASHLAND        MOSUNNY   73  62  68 S14G22    30.05F
HAYWARD        PTSUNNY   70  60  70 S16G23    30.08R
SIREN          MOSUNNY   71  62  74 S13       30.03F
CUMBERLAND     CLOUDY    64  61  88 S9        30.08R
RICE LAKE      MOSUNNY   66  61  83 SE15G23   30.09F
CHETEK         MOSUNNY   66  62  86 MISG      30.09S
LADYSMITH      CLOUDY    67  58  74 S14       30.13R
EAU CLAIRE     NOT AVBL
MENOMONIE      CLOUDY    67  62  84 E10       30.08F
NEW RICHMOND   PTSUNNY   66  62  86 SE9       30.04F
OSCEOLA        CLOUDY    71  63  75 SE13G22   30.04F
$$

WIZ003>005-009-010-017-018-251700-
NORTH CENTRAL WISCONSIN

CITY           SKY/WX    TMP DP  RH WIND       PRES   REMARKS
MANITOWISH WTR CLOUDY    64  51  64 S7        30.14S
ARBOR VITAE    PTSUNNY   65  54  66 S7        30.15S
WOODRUFF       PTSUNNY   65  54  66 S7        30.15S
RHINELANDER    CLOUDY    66  54  65 S7        30.17F
EAGLE RIVER    CLOUDY    71  51  50 S7        30.15F
LAND O LAKES   MOSUNNY   71  49  45 S13       30.16F
PHILLIPS       CLOUDY    67  56  67 S12       30.13S
TOMAHAWK         N/A     64  55  71 S5        30.16S
MEDFORD        CLOUDY    63  52  67 S8        30.16R
MERRILL        CLOUDY    65  54  66 S6        30.17S
$$

WIZ029-030-035-036-043>047-251700-
CENTRAL WISCONSIN

CITY           SKY/WX    TMP DP  RH WIND       PRES   REMARKS
WAUSAU         CLOUDY    65  52  62 SE7       30.16R
MOSINEE        PTSUNNY   66  55  68 SE7       30.17S
MARSHFIELD     CLOUDY    64  55  72 S3        30.17R
STEVENS POINT  CLOUDY    66  54  65 S12       30.17S
WAUPACA        SUNNY     73  59  60 S12       30.19R
WAUTOMA        MOSUNNY   71  61  70 S10         N/A
WISC RAPIDS    CLOUDY    71  58  63 S7        30.18R
CAMP DOUGLAS   NOT AVBL
$$

WIZ011>013-019>022-031-037>040-048>050-251700-
NORTHEAST WISCONSIN

CITY           SKY/WX    TMP DP  RH WIND       PRES   REMARKS
ANTIGO         CLOUDY    63  49  60 S8        30.19R
SHAWANO        MOSUNNY   71  54  55 S3        30.17F
OCONTO         MOSUNNY   72  57  60 S9        30.18S
STURGEON BAY     N/A     73  59  61 SW12      30.18F
GREEN BAY      MOSUNNY   73  63  70 S13       30.19S
MANITOWOC      NOT AVBL
APPLETON       MOSUNNY   72  55  56 S14G21    30.17F
CLINTONVILLE   CLOUDY   N/A N/A N/A SW9       30.18F
OSHKOSH        PTSUNNY   72  60  66 SW13      30.19S
$$

WIZ032>034-041-042-053>061-251700-
SOUTHWEST WISCONSIN

CITY           SKY/WX    TMP DP  RH WIND       PRES   REMARKS
LA CROSSE      LGT RAIN  67  63  87 S9        30.15R
SPARTA         CLOUDY    65  60  82 S7        30.16S
VIROQUA        CLOUDY    64  63  94 S8        30.18S
BOSCOBEL       CLOUDY    72  61  68 CALM      30.18R
PRAIRIE DU CHI CLOUDY    70  60  70 SE3       30.17R
PLATTEVILLE    MOSUNNY   71  66  85 S8        30.19S
$$

WIZ056-057-062-063-064-067-068-251700-
SOUTH CENTRAL WISCONSIN

CITY           SKY/WX    TMP DP  RH WIND       PRES   REMARKS
REEDSBURG      CLOUDY    69  62  78 S8        30.18R
BARABOO/DELLS  CLOUDY    71  57  61 SW8       30.19S
LONE ROCK      CLOUDY    71  63  75 S5        30.19R
MINERAL POINT  PTSUNNY   72  64  78 S6        30.20R
MADISON        PTSUNNY   73  61  65 S14       30.19R
MIDDLETON      PTSUNNY   73  62  68 S10       30.20R
WATERTOWN      CLOUDY    71  63  74 S12       30.19S
MONROE         MOSUNNY   72  61  68 S12       30.20R
JANESVILLE     MOSUNNY   75  61  60 S12       30.20R
$$

WIZ051-052-058>065-066-070>072-251700-
SOUTHEAST WISCONSIN

CITY           SKY/WX    TMP DP  RH WIND       PRES   REMARKS
MILWAUKEE      MOSUNNY   76  60  57 S17       30.19F
WAUKESHA       PTSUNNY   72  57  60 S9        30.20S
MILWAUKEE/TIMM MOSUNNY   75  55  50 S14       30.20F
RACINE         SUNNY     74  61  63 SE14G23   30.22S
KENOSHA        PTSUNNY   73  60  63 S10       30.21S
FOND DU LAC    PTSUNNY   73  58  59 S12G20    30.20R
SHEBOYGAN      SUNNY     74  62  66 S16       30.19F
WEST BEND      CLOUDY    72  61  68 SW8       30.20S
JUNEAU         PTSUNNY   70  60  70 S13G20    30.21R
$$

LSZ147-162-251700-
LAKE SUPERIOR

STATION/POSITION TIME  TEMP    WIND        PRES    WAVE
                       AIR SEA DIR/SP/G            HT/PER
                 (UTC) (F)     (DEG/KT/KT) (MB)    (FT/S)
W MID LAKE BUOY  1450   56 49  170/  8/ 10 1018.5F   1
DEVILS ISLAND    1500   68     180/  8/ 13 1017.6F
SAXON HARBOR     1540   72     200/ 10/ 17 1017.3F
$$

LMZ867-665-643>646-251700-
LAKE MICHIGAN

STATION/POSITION TIME  TEMP    WIND        PRES    WAVE
                       AIR SEA DIR/SP/G            HT/PER
                 (UTC) (F)     (DEG/KT/KT) (MB)    (FT/S)
CHAMBERS ISLAND  1540   71     200/  7/ 11 1021.3S
S GREEN BAY BUOY 1530   68 72  210/ 10/ 14 1021.5F
N MID LAKE BUOY  1450   65 67  180/ 10/ 12 1022.7F   0
NORTHPORT PIER   1540   67     140/ 11/ 12 1021.7F
KEWAUNEE LAKESHO 1524   68     170/  7/  8 1021.5
SHEBOYGAN LAKESH 1500   66     160/  8/  9 1022.4R
PORT WASHINGTON  1530   70     160/  6/  7 1023.4R
ATWATER BUOY     1409   68 68  130/  4/  4 1022.7F
MILWAUKEE LAKESH 1530   68     130/ 12/ 12   N/A
S MID LAKE BUOY  1450   70 71  160/ 12/ 14 1022.9F   1/ 3
KENOSHA   LAKESH 1500   71     170/ 11/ 13 1022.7
$$

TC  - TEMPERATURE IN CELSIUS
VSB - VISIBILITY IN STATUTE MILES
WCI - WIND CHILL INDEX
HX  - HEAT INDEX





USA.gov is the U.S. government's official web portal to all federal, state and local government web resources and services.